This demonstration page uses our WeatherBlox Daily Observations layout. Learn more.

Left ArrowRight Arrow

40.92945, -100.16068

Hourly Observations for November 22, 2020

Temp ( °F °C ) Dew Point ( °F °C ) Humidity (%) Winds ( mph kmh ) Pressure ( in mb ) Visibility ( mi km ) Precip ( " mm )
12:15 am 00:15 Clear 32 -0.1 30 -1 94 94 SSW 3 6 30.43 1030 10 16.0934 0 0
12:35 am 00:35 Clear 26 -3.3 24 -4.3 93 93 NW 5 7 30.47 1032 7 11.26538 0 0
12:55 am 00:55 Clear 27 -2.7 26 -3.4 95 95 WNW 6 9 30.47 1032 7 11.26538 0 0
1:15 am 01:15 Clear 26 -3.3 25 -4.1 94 94 NW 9 15 30.47 1032 10 16.0934 0 0
1:35 am 01:35 Clear 27 -2.9 26 -3.6 95 95 WNW 6 9 30.48 1032 10 16.0934 0 0
1:55 am 01:55 Clear 26 -3.3 24 -4.2 94 94 NW 6 9 30.48 1032 10 16.0934 0 0
2:15 am 02:15 Partly Cloudy 28 -2.2 26 -3.4 92 92 W 9 15 30.47 1032 10 16.0934 0 0
2:35 am 02:35 Partly Cloudy 28 -2.3 26 -3.5 92 92 WNW 8 13 30.47 1032 10 16.0934 0 0
2:55 am 02:55 Clear 26 -3.1 24 -4.3 92 92 NW 7 11 30.48 1032 10 16.0934 0 0
3:15 am 03:15 Clear 26 -3.5 24 -4.6 92 92 WNW 9 15 30.48 1032 10 16.0934 0 0
3:35 am 03:35 Clear 25 -3.8 23 -5.1 91 91 WNW 8 13 30.49 1032 10 16.0934 0 0
3:55 am 03:55 Clear 24 -4.2 22 -5.4 91 91 WNW 10 17 30.49 1033 10 16.0934 0 0
4:15 am 04:15 Clear 24 -4.3 22 -5.5 91 91 WNW 12 19 30.5 1033 10 16.0934 0 0
4:35 am 04:35 Clear 25 -3.8 23 -5.1 91 91 WNW 10 17 30.5 1033 10 16.0934 0 0
4:55 am 04:55 Clear 24 -4.2 22 -5.5 91 91 WNW 9 15 30.5 1033 10 16.0934 0 0
5:15 am 05:15 Clear 24 -4.4 22 -5.7 91 91 WNW 10 17 30.51 1033 10 16.0934 0 0
5:35 am 05:35 Clear 24 -4.2 22 -5.7 89 89 WNW 7 11 30.51 1033 10 16.0934 0 0
5:55 am 05:55 Clear 24 -4.5 21 -6 89 89 WNW 8 13 30.52 1034 10 16.0934 0 0
6:15 am 06:15 Clear 23 -5 20 -6.5 89 89 WNW 7 11 30.53 1034 10 16.0934 0 0
6:35 am 06:35 Clear 23 -5.1 19 -7.1 86 86 WNW 9 15 30.53 1034 10 16.0934 0 0
6:55 am 06:55 Clear 23 -5 19 -7.2 85 85 WNW 12 19 30.54 1034 10 16.0934 0 0
7:15 am 07:15 Clear 25 -3.9 19 -7 79 79 WNW 13 20 30.54 1034 10 16.0934 0 0
7:35 am 07:35 Sunny 24 -4.5 19 -7.1 82 82 WNW 10 17 30.54 1034 10 16.0934 0 0
7:55 am 07:55 Sunny 24 -4.3 19 -7.3 80 80 WNW 10 17 30.55 1035 10 16.0934 0 0
8:15 am 08:15 Sunny 26 -3.6 19 -7 78 78 WNW 14 22 30.55 1034 10 16.0934 0 0
8:35 am 08:35 Sunny 28 -2.5 21 -6.3 75 75 WNW 14 22 30.54 1034 10 16.0934 0 0
8:55 am 08:55 Sunny 29 -1.9 21 -6.1 73 73 WNW 16 26 30.55 1034 10 16.0934 0 0
9:15 am 09:15 Sunny 30 -1.2 21 -5.9 71 71 WNW 15 24 30.55 1035 10 16.0934 0 0
9:35 am 09:35 Sunny 31 -0.5 21 -6 67 67 WNW 15 24 30.54 1034 10 16.0934 0 0
9:55 am 09:55 Sunny 32 0.1 22 -5.5 66 66 WNW 13 20 30.54 1034 10 16.0934 0 0
10:15 am 10:15 Sunny 33 0.7 22 -5.7 63 63 WNW 13 20 30.53 1034 10 16.0934 0 0
10:35 am 10:35 Sunny 35 1.9 23 -4.9 61 61 WNW 13 20 30.52 1034 10 16.0934 0 0
10:55 am 10:55 Sunny 38 3.1 23 -4.8 57 57 WNW 9 15 30.5 1033 10 16.0934 0 0
11:15 am 11:15 Sunny 40 4.3 24 -4.2 54 54 WNW 9 15 30.49 1032 10 16.0934 0 0
11:35 am 11:35 Sunny 41 5.2 25 -3.9 52 52 WNW 7 11 30.47 1032 10 16.0934 0 0
11:55 am 11:55 Sunny 46 7.5 24 -4.7 42 42 NW 12 19 30.43 1031 10 16.0934 0 0
12:15 pm 12:15 Sunny 46 7.6 22 -5.6 39 39 NNW 13 20 30.42 1030 10 16.0934 0 0
12:35 pm 12:35 Sunny 47 8.1 21 -6.1 36 36 NNW 14 22 30.41 1030 10 16.0934 0 0
12:55 pm 12:55 Sunny 48 8.9 21 -6.3 34 34 NNW 14 22 30.39 1029 10 16.0934 0 0
1:15 pm 13:15 Sunny 48 9.1 18 -7.6 30 30 NW 15 24 30.38 1029 10 16.0934 0 0
1:35 pm 13:35 Sunny 49 9.5 17 -8.2 28 28 NNW 13 20 30.37 1028 10 16.0934 0 0
1:55 pm 13:55 Sunny 49 9.7 15 -9.3 25 25 NW 13 20 30.35 1028 10 16.0934 0 0
2:15 pm 14:15 Sunny 50 9.9 14 -9.8 24 24 NW 13 20 30.34 1027 10 16.0934 0 0
2:35 pm 14:35 Sunny 50 9.8 14 -10.1 24 24 NW 8 13 30.34 1028 10 16.0934 0 0
2:55 pm 14:55 Sunny 51 10.3 13 -10.4 22 22 WNW 13 20 30.34 1027 10 16.0934 0 0
3:15 pm 15:15 Sunny 50 10.2 13 -10.7 22 22 WNW 9 15 30.33 1027 10 16.0934 0 0
3:35 pm 15:35 Sunny 50 10.1 13 -10.5 22 22 WNW 8 13 30.33 1027 10 16.0934 0 0
3:55 pm 15:55 Sunny 50 10 13 -10.8 22 22 WNW 8 13 30.33 1027 10 16.0934 0 0
4:15 pm 16:15 Sunny 49 9.6 16 -8.9 26 26 W 7 11 30.32 1027 10 16.0934 0 0
4:35 pm 16:35 Sunny 48 8.7 17 -8.6 29 29 W 6 9 30.33 1027 10 16.0934 0 0
4:55 pm 16:55 Sunny 45 7.2 16 -8.9 31 31 W 5 7 30.35 1028 10 16.0934 0 0
5:15 pm 17:15 Sunny 43 6.1 15 -9.2 33 33 WSW 3 6 30.36 1028 10 16.0934 0 0
5:35 pm 17:35 Clear 40 4.4 16 -8.8 38 38 SW 3 6 30.36 1028 10 16.0934 0 0
5:55 pm 17:55 Clear 39 3.7 16 -8.7 40 40 S 3 6 30.37 1028 10 16.0934 0 0
6:15 pm 18:15 Clear 37 2.9 16 -9 42 42 S 5 7 30.38 1029 10 16.0934 0 0
6:35 pm 18:35 Clear 35 1.4 16 -8.9 47 47 Calm 30.39 1029 10 16.0934 0 0
6:55 pm 18:55 Clear 33 0.3 16 -8.9 50 50 Calm 30.4 1030 10 16.0934 0 0
7:15 pm 19:15 Clear 33 0.7 17 -8.5 51 51 Calm 30.4 1029 10 16.0934 0 0
7:35 pm 19:35 Clear 32 0 17 -8.5 53 53 Calm 30.41 1030 10 16.0934 0 0
7:55 pm 19:55 Clear 30 -1.3 17 -8.6 58 58 Calm 30.42 1030 10 16.0934 0 0
8:15 pm 20:15 Clear 29 -1.7 16 -8.8 59 59 Calm 30.42 1030 10 16.0934 0 0
8:35 pm 20:35 Clear 27 -2.7 16 -8.7 64 64 SSE 5 7 30.43 1030 10 16.0934 0 0
8:55 pm 20:55 Clear 28 -2.3 17 -8.6 62 62 SSE 3 6 30.41 1030 10 16.0934 0 0
9:15 pm 21:15 Clear 26 -3.5 16 -8.9 67 67 Calm 30.42 1030 10 16.0934 0 0
9:35 pm 21:35 Clear 24 -4.5 15 -9.2 70 70 Calm 30.42 1030 10 16.0934 0 0
9:55 pm 21:55 Clear 22 -5.5 15 -9.6 73 73 Calm 30.43 1031 10 16.0934 0 0
10:15 pm 22:15 Clear 23 -5.2 14 -9.9 70 70 SE 3 6 30.42 1030 10 16.0934 0 0
10:35 pm 22:35 Clear 22 -5.3 14 -10 70 70 SSE 3 6 30.43 1031 10 16.0934 0 0
10:55 pm 22:55 Clear 23 -5.2 14 -9.8 70 70 SE 5 7 30.41 1030 10 16.0934 0 0
11:15 pm 23:15 Clear 23 -4.8 15 -9.7 69 69 ESE 3 6 30.4 1029 10 16.0934 0 0
11:35 pm 23:35 Clear 23 -5 14 -9.9 69 69 ESE 3 6 30.39 1029 10 16.0934 0 0
11:55 pm 23:55 Clear 23 -5 14 -9.8 69 69 SE 3 6 30.39 1029 10 16.0934 0 0

Powered by AerisWeather